Theta_e
307 304 302 300 299 296 296 298 296 290 290 294 288 292 292 293 296 294 292 302 303 303 305 306 307 307 308 306 305 305 305 306 309 309 310 310 311 312
303 299 297 295 294 293 292 290 290 290 284 288 289 289 291 294 297 294 293 301 300 302 304 305 305 305 306 305 304 304 304 304 307 305 306 307 309 309
298 296 294 292 290 290 290 289 288 287 284 285 288 289 288 289 291 291 294 292 293 299 304 303 305 304 304 304 303 303 302 303 303 304 305 305 306 307
296 294 293 294 289 289 289 288 287 287 285 283 285 286 287 288 289 289 292 294 291 298 302 302 303 303 303 304 301 301 301 301 302 303 302 302 303 304
293 293 293 292 290 289 289 289 288 289 286 284 284 285 286 287 289 288 290 289 293 299 299 300 300 302 303 300 300 300 300 299 299 299 299 300 301 302
294 294 294 293 291 290 290 289 287 286 286 285 284 284 284 287 285 285 287 290 289 292 295 297 298 299 299 299 299 300 299 298 298 298 298 298 299 299
294 295 296 299 301 297 290 287 286 284 284 283 283 282 283 284 284 285 286 288 289 287 288 291 292 293 294 295 297 299 299 298 298 298 298 298 298 299
289 290 291 294 297 299 299 299 294 286 284 283 282 281 282 283 283 285 283 285 281 287 289 288 291 291 292 292 298 298 298 298 297 298 298 298 297 298
287 288 289 291 289 287 294 294 295 297 294 285 282 282 282 284 283 284 286 284 284 288 287 287 290 290 291 292 297 298 298 297 297 297 297 297 297 296
286 286 286 286 289 287 287 287 287 287 290 290 285 285 286 287 287 286 284 284 285 287 285 284 289 288 290 292 297 298 298 296 296 296 296 297 296 296
285 285 286 286 292 291 286 285 285 286 292 293 292 292 292 292 293 287 285 284 282 284 284 285 287 287 288 292 294 297 297 296 296 296 296 297 297 296
284 287 293 289 291 290 285 284 283 282 285 285 285 287 288 288 292 287 286 283 282 280 284 285 285 287 286 292 293 294 294 295 295 295 296 296 296 296
286 287 289 292 291 291 289 286 285 283 285 282 283 285 286 287 287 288 287 283 282 281 288 284 285 287 287 288 291 293 293 293 293 293 295 295 296 296
286 288 290 291 291 290 289 290 289 286 283 282 283 283 284 285 286 287 287 285 286 284 287 285 284 286 287 286 286 290 292 292 292 292 294 295 296 296
289 291 291 289 289 288 290 289 287 283 282 281 280 281 283 285 286 286 286 286 285 285 289 287 287 288 288 286 286 288 288 290 292 291 293 294 294 294
292 289 290 289 288 286 284 284 284 284 282 279 279 280 282 284 284 285 283 284 283 284 287 288 288 288 286 288 288 287 289 286 290 292 293 294 294 295
286 285 283 282 281 280 280 281 281 281 280 280 279 280 282 282 283 284 283 283 282 282 283 285 287 289 289 290 288 288 289 289 291 292 293 291 293 293
285 283 280 280 279 278 278 278 279 280 279 280 279 280 280 281 282 283 283 282 281 281 282 283 285 285 286 289 293 288 289 288 292 292 293 290 290 292
283 281 280 279 278 278 277 277 277 278 278 278 278 279 280 280 281 281 281 281 281 281 282 283 283 283 280 280 287 293 288 290 291 291 292 291 290 291
282 281 279 278 278 277 276 276 276 277 278 278 278 278 278 279 280 280 280 280 281 281 281 282 282 282 281 281 283 287 291 292 290 289 290 292 292 293
281 280 279 278 277 276 275 275 276 277 277 277 277 277 278 278 279 280 280 282 282 280 279 279 282 284 286 287 285 287 290 294 296 292 290 288 289 289
280 279 278 277 276 275 275 275 275 276 276 277 276 277 278 278 279 279 279 279 280 280 280 281 283 283 283 283 283 286 289 293 296 298 297 295 290 286
279 278 277 277 276 275 275 275 275 276 276 276 276 276 277 278 279 279 279 280 280 280 280 280 281 282 283 283 284 286 288 290 291 292 295 296 296 297
Wind_Speed
8 8 7 4 4 4 4 2 4 2 2 3 3 4 4 4 8 6 7 16 19 18 16 17 19 20 18 22 22 23 22 23 21 17 16 16 17 16
6 9 7 3 5 4 4 4 3 4 2 1 3 3 4 5 9 8 10 18 18 18 17 19 20 22 22 23 23 23 23 20 15 16 18 19 19 18
8 9 7 5 4 4 5 4 4 3 3 3 3 3 4 6 8 6 9 7 6 17 18 21 21 22 23 24 22 22 18 18 18 17 17 15 16 15
8 9 8 6 6 5 4 5 5 4 3 1 3 3 3 4 6 8 8 8 6 14 18 21 22 23 23 21 21 19 17 16 16 14 16 18 17 17
7 8 6 6 5 4 4 4 4 3 1 1 3 2 3 3 8 6 8 7 7 16 14 21 23 23 23 22 22 18 16 14 13 17 16 15 16 16
8 6 6 6 6 6 6 5 3 3 3 2 2 3 2 5 3 5 9 8 10 8 8 17 22 22 19 23 20 19 19 18 17 16 15 15 15 17
6 6 5 11 16 10 5 4 4 3 3 2 3 3 3 5 8 6 6 8 11 2 6 9 10 10 8 14 14 16 21 19 18 18 17 16 14 14
9 7 7 11 13 17 17 14 8 3 2 2 3 2 4 4 4 7 5 9 6 3 10 10 9 9 9 9 18 16 22 21 20 19 18 17 15 13
8 8 7 6 9 7 14 15 14 16 11 3 3 2 4 6 6 6 9 8 7 11 9 11 8 9 12 10 15 19 21 21 21 21 20 18 15 13
9 7 8 7 7 8 8 7 7 6 7 6 3 4 3 6 5 4 4 8 7 8 2 9 10 11 11 7 12 23 21 22 23 23 20 18 15 14
7 7 7 7 11 11 8 7 7 8 11 16 15 15 16 17 14 6 9 9 9 8 3 8 9 14 8 6 9 20 20 24 25 23 22 20 16 14
5 6 13 9 12 11 9 5 9 6 6 9 10 11 11 11 19 8 7 9 8 5 5 9 8 12 7 3 11 10 11 19 22 20 21 20 19 7
7 6 7 14 15 13 12 8 7 3 9 5 5 7 8 9 9 10 9 3 7 5 13 4 10 10 5 9 8 8 10 10 9 11 16 17 16 13
10 6 9 16 16 13 11 15 12 10 5 6 7 8 8 8 10 10 11 8 8 8 11 8 6 10 7 6 6 9 11 10 9 10 10 12 14 14
8 13 15 15 13 12 18 16 11 8 6 8 6 5 5 7 10 9 8 9 9 7 9 10 9 11 8 6 7 10 13 9 10 10 10 9 9 9
13 9 12 15 15 13 12 9 8 7 6 4 4 5 5 7 7 8 8 9 8 9 12 13 13 11 9 7 8 8 10 6 10 9 9 9 9 10
9 5 8 4 8 9 5 8 7 7 6 5 5 6 7 8 8 8 8 8 9 12 12 13 15 13 10 5 5 9 10 8 10 10 8 9 11 11
7 8 4 8 8 6 7 6 5 6 5 6 5 6 7 7 8 9 9 9 10 11 11 11 13 13 9 3 11 9 10 9 8 10 9 7 10 12
10 6 8 7 6 6 5 4 3 4 4 5 4 6 7 7 9 9 10 10 11 11 11 11 11 12 11 10 5 13 11 10 9 8 8 8 7 9
6 8 7 5 6 3 2 3 4 5 5 5 5 5 6 6 8 10 10 11 11 11 11 11 12 12 9 8 5 6 18 10 9 9 8 8 7 12
8 6 4 5 2 1 3 4 5 5 4 5 5 5 6 6 7 8 9 15 14 11 12 12 12 15 8 6 5 6 9 19 14 10 10 5 9 11
4 5 4 3 2 3 4 5 5 5 4 4 5 5 6 5 7 8 9 10 11 10 10 9 11 10 7 7 7 6 7 8 11 17 18 14 6 8
5 4 3 3 3 4 5 5 4 3 3 4 4 5 6 6 7 6 7 9 10 11 12 11 10 8 8 6 7 6 9 8 6 6 7 15 14 12
Wind_Direction
90 84 82 56 59 59 65 97 148 142 306 307 347 334 321 332 332 343 320 324 340 336 331 330 329 324 314 328 333 331 323 315 310 311 314 315 314 312
90 93 84 72 66 58 69 62 66 123 139 254 289 280 306 332 330 339 326 337 326 334 331 338 337 332 324 325 328 330 329 318 321 314 310 307 302 295
90 100 89 82 78 68 63 58 56 71 100 301 263 295 312 336 329 318 313 300 315 324 333 340 334 330 327 326 332 332 329 325 319 312 314 330 323 311
109 104 98 95 78 73 72 73 69 48 119 287 280 294 289 312 300 307 314 318 322 316 335 337 332 326 324 331 335 334 329 329 327 331 327 317 314 313
103 100 107 106 87 83 81 83 64 51 55 55 291 295 296 310 331 315 316 313 320 327 326 331 329 324 328 337 342 330 340 332 322 327 323 318 313 308
92 104 106 101 103 100 92 85 79 51 17 2 315 312 310 311 303 302 332 338 324 312 330 328 324 317 329 336 337 338 347 333 328 326 318 316 312 304
101 101 119 100 96 100 104 80 69 50 24 5 348 339 318 329 349 322 324 326 314 300 326 330 318 315 321 333 322 337 341 340 336 330 324 318 310 302
106 85 73 76 75 81 77 76 80 89 32 35 6 352 306 301 313 327 320 353 336 302 332 319 322 317 325 322 324 337 341 341 337 334 333 329 323 316
102 94 81 67 73 75 74 70 58 53 66 85 16 330 316 331 320 327 339 331 298 307 322 324 325 322 328 317 322 338 341 343 343 338 332 325 317 308
93 94 90 71 56 72 68 57 41 26 40 48 24 355 320 312 322 315 298 292 298 312 354 319 326 329 322 306 331 341 343 343 341 338 336 332 326 314
92 86 89 81 63 68 73 63 43 24 24 28 19 11 357 354 4 354 349 340 341 323 325 328 327 329 307 311 337 336 344 343 342 338 336 336 334 327
77 73 87 90 80 75 75 63 55 6 15 8 3 358 352 347 357 3 329 348 337 321 300 333 329 342 320 323 329 337 343 339 336 333 336 336 334 325
100 89 82 84 81 78 71 59 57 12 22 7 352 359 1 353 347 339 333 341 322 286 312 339 325 335 306 312 319 340 340 334 334 335 334 333 334 336
110 100 89 81 71 68 64 57 40 45 30 19 19 8 352 343 335 328 326 319 307 280 303 326 306 335 319 313 328 332 340 337 339 338 340 335 348 347
109 108 90 75 70 58 54 44 37 39 30 31 7 337 324 311 316 329 325 319 306 305 330 329 337 336 335 319 313 330 337 338 345 339 342 352 351 353
103 90 93 78 69 65 51 30 34 29 30 4 329 308 310 344 343 336 333 334 331 342 343 345 350 351 333 323 319 328 340 337 333 344 344 359 5 9
100 92 62 61 58 43 32 38 26 23 11 347 349 341 350 347 344 337 341 338 345 345 348 350 352 349 325 312 334 344 345 347 344 349 355 9 13 14
84 81 90 60 58 44 35 28 19 10 356 360 348 344 351 338 334 345 354 352 349 350 348 350 350 349 356 333 16 348 354 345 352 353 4 15 25 20
84 89 72 64 54 42 27 15 355 347 346 9 356 340 334 329 342 353 354 353 354 353 351 350 354 357 354 357 313 357 351 349 2 10 11 19 28 30
92 79 67 64 58 46 9 22 5 12 6 354 343 328 328 333 349 357 353 353 353 351 350 354 358 354 346 333 319 320 341 7 18 13 11 28 33 27
67 67 74 69 81 62 39 39 34 27 350 331 323 326 336 345 353 355 351 357 356 356 353 351 344 331 322 316 352 348 350 358 21 38 17 3 31 33
86 86 82 94 85 66 49 44 39 22 340 321 313 332 340 341 352 352 353 355 357 354 347 336 341 347 357 357 353 341 346 353 3 33 45 49 38 41
98 111 111 86 48 48 45 39 27 356 318 313 323 339 338 347 348 352 350 356 357 356 353 347 350 352 355 348 346 339 351 352 346 2 22 10 16 26